"America/Chicago Time","Lifetime Energy (kWh)","Power (W)","AC Volts RMS (V) ","AC Amps RMS (mA)","Grid Frequency (Hz)","Inverter Temperature (C)"
"07/07/12 10:46:18","158.4756","184.1","217.66","835","60.03","33"
"07/07/12 10:51:17","158.4899","186.3","217.8","845","60.0","33"
"07/07/12 10:56:18","158.5046","189.6","217.61","857","60.03","33"
"07/07/12 11:01:19","158.5194","190.8","217.43","868","60.03","33"
"07/07/12 11:06:17","158.5342","192.0","217.13","871","60.0","34"
"07/07/12 11:11:18","158.5493","193.5","216.31","876","60.0","34"
"07/07/12 11:16:18","158.5644","194.4","217.64","879","60.0","34"
"07/07/12 11:21:18","158.5796","195.3","218.01","883","60.0","35"
"07/07/12 11:26:17","158.5948","195.7","217.65","886","60.0","34"
"07/07/12 11:31:18","158.6102","196.5","218.19","888","60.0","34"
"07/07/12 11:36:18","158.6255","195.9","217.09","881","60.0","34"
"07/07/12 11:41:17","158.6408","196.9","217.7","877","60.0","34"
"07/07/12 11:46:17","158.656","196.6","217.72","889","60.0","35"
"07/07/12 11:51:17","158.6714","196.3","217.74","892","60.07","34"
"07/07/12 11:56:18","158.6867","195.7","217.22","890","60.03","34"
"07/07/12 12:01:19","158.702","195.8","217.19","879","60.03","34"
"07/07/12 12:06:17","158.7172","196.0","217.46","889","60.0","34"
"07/07/12 12:11:19","158.7326","196.4","217.85","886","60.0","34"
"07/07/12 12:16:17","158.7478","196.1","217.52","886","60.0","34"
"07/07/12 12:21:17","158.7631","197.1","218.42","889","60.0","34"
"07/07/12 12:26:18","158.7785","195.9","217.95","885","60.0","35"
"07/07/12 12:31:18","158.7938","195.3","217.65","888","60.0","34"
"07/07/12 12:36:17","158.809","195.8","217.7","882","60.03","34"
"07/07/12 12:41:18","158.8243","195.7","218.05","883","60.03","34"
"07/07/12 12:46:18","158.8397","196.7","217.69","892","60.0","34"
"07/07/12 12:51:19","158.855","195.0","216.51","893","60.03","35"
"07/07/12 12:56:17","158.8702","195.3","216.87","890","60.03","35"
"07/07/12 13:01:19","158.8856","196.6","217.14","894","60.03","35"
"07/07/12 13:06:18","158.9008","196.4","217.91","889","60.03","35"
"07/07/12 13:11:19","158.9162","195.9","217.32","889","60.03","36"
"07/07/12 13:16:17","158.9314","196.5","217.29","892","60.0","36"
"07/07/12 13:21:17","158.9467","195.3","217.32","892","60.03","36"
"07/07/12 13:26:19","158.9621","195.5","216.81","891","60.03","36"
"07/07/12 13:31:19","158.9774","195.4","217.17","887","60.03","36"
"07/07/12 13:36:17","158.9926","196.8","216.62","894","60.0","36"
"07/07/12 13:41:18","159.0079","196.1","217.12","893","60.03","36"
"07/07/12 13:46:19","159.0233","195.7","217.13","888","60.0","36"
"07/07/12 13:51:17","159.0385","196.8","216.88","885","60.0","37"
"07/07/12 13:56:18","159.0538","196.4","217.32","889","60.03","36"
"07/07/12 14:01:18","159.0691","196.3","217.74","884","60.07","37"
"07/07/12 14:06:19","159.0843","194.7","216.98","886","60.03","37"
"07/07/12 14:11:17","159.0994","193.4","217.21","881","60.03","37"
"07/07/12 14:16:19","159.1143","189.7","216.61","865","60.03","37"
"07/07/12 14:21:17","159.1291","188.8","216.78","866","60.03","37"
"07/07/12 14:26:18","159.1438","187.8","217.13","849","60.0","37"
"07/07/12 14:31:19","159.1584","184.4","217.28","838","60.03","37"
"07/07/12 14:36:17","159.1726","183.6","217.86","831","60.03","37"
"07/07/12 14:41:17","159.1867","180.8","217.64","820","60.03","37"
"07/07/12 14:46:18","159.2006","177.3","217.57","809","60.0","38"
"07/07/12 14:51:18","159.2144","174.4","216.22","801","60.0","37"
"07/07/12 14:56:19","159.228","172.0","217.09","786","60.0","38"
"07/07/12 15:01:18","159.2413","170.6","216.3","784","60.03","38"
"07/07/12 15:06:17","159.2545","166.8","216.68","767","60.0","38"
"07/07/12 15:11:18","159.2674","164.8","216.36","754","60.0","38"
"07/07/12 15:16:18","159.2801","160.4","216.19","735","60.03","39"
"07/07/12 15:21:18","159.2925","157.9","216.22","733","60.03","39"
"07/07/12 15:26:19","159.3048","156.0","216.33","717","60.03","39"
"07/07/12 15:31:18","159.3168","153.0","215.53","712","60.03","39"
"07/07/12 15:36:18","159.3287","150.3","215.85","698","60.03","39"
"07/07/12 15:41:19","159.3402","146.0","215.73","683","60.03","40"
"07/07/12 15:46:18","159.3514","143.1","214.71","667","60.0","40"
"07/07/12 15:51:18","159.3625","140.4","215.93","653","60.03","39"
"07/07/12 15:56:18","159.3732","136.6","215.69","641","60.03","40"
"07/07/12 16:01:19","159.3838","132.4","216.38","619","60.03","40"
"07/07/12 16:06:17","159.3939","129.2","216.29","606","60.07","40"
"07/07/12 16:11:18","159.4039","125.8","216.05","591","60.03","40"
"07/07/12 16:16:19","159.4136","122.6","214.83","579","60.03","39"
"07/07/12 16:21:17","159.423","119.8","215.65","566","60.03","39"
"07/07/12 16:26:19","159.4322","116.1","215.01","546","60.0","39"
"07/07/12 16:31:17","159.4411","112.3","214.37","538","60.07","38"
"07/07/12 16:36:18","159.4497","108.1","214.82","517","60.03","39"
"07/07/12 16:41:18","159.458","104.5","215.02","501","60.03","38"
"07/07/12 16:46:18","159.4659","101.0","214.81","491","60.0","38"
"07/07/12 16:51:17","159.4736","96.7","214.13","473","60.07","38"
"07/07/12 16:56:18","159.4811","93.5","214.49","456","60.0","38"
"07/07/12 17:01:18","159.4882","88.8","214.38","433","60.0","38"
"07/07/12 17:06:18","159.4949","84.9","215.5","416","60.0","38"
"07/07/12 17:11:19","159.5014","80.8","214.95","397","60.03","38"
"07/07/12 17:16:17","159.5075","76.6","214.08","380","59.96","38"
"07/07/12 17:21:18","159.5133","72.6","214.57","365","60.03","37"
"07/07/12 17:26:18","159.5188","68.5","214.94","345","60.03","37"
"07/07/12 17:31:19","159.5239","64.1","214.29","327","60.0","37"
"07/07/12 17:36:17","159.5283","43.9","213.1","267","60.03","37"
"07/07/12 17:41:17","159.5323","54.4","213.8","222","60.0","36"
"07/07/12 17:46:17","159.5361","55.3","213.34","194","60.03","36"
"07/07/12 17:51:18","159.54","52.1","213.16","328","60.03","36"
"07/07/12 17:56:18","159.5435","47.7","213.13","369","60.03","36"
"07/07/12 18:01:17","159.5467","33.7","213.09","216","60.0","36"
"07/07/12 18:06:17","159.5496","40.6","213.59","300","60.03","35"
"07/07/12 18:11:18","159.5522","28.6","214.13","88","60.03","35"
"07/07/12 18:16:17","159.5545","36.5","213.1","117","60.03","34"
"07/07/12 18:21:17","159.5566","33.6","213.71","152","60.03","34"
"07/07/12 18:26:19","159.5583","22.2","213.74","35","60.03","34"
"07/07/12 18:31:18","159.5599","19.2","213.94","247","60.03","34"
"07/07/12 18:36:17","159.5611","22.5","213.03","180","60.03","33"
"07/07/12 18:41:18","159.5622","3.0","213.77","213","60.03","33"
"07/07/12 18:46:18","159.5632","11.3","213.91","6","60.07","33"
"07/07/12 18:51:17","159.564","14.6","212.93","30","60.03","32"
"07/07/12 18:56:19","159.5646","12.7","212.79","0","60.03","32"
"07/07/12 19:01:18","159.5652","6.6","212.81","226","60.03","32"
"07/07/12 19:06:19","159.5657","12.8","213.14","12","60.03","31"
"07/07/12 19:11:19","159.5662","0.0","213.3","0","60.03","31"
"07/07/12 19:16:17","159.5667","13.8","212.96","106","60.0","30"
"07/07/12 19:21:19","159.5672","0.0","213.55","242","60.03","30"
"07/07/12 19:26:17","159.5676","13.2","213.5","7","60.03","30"
"07/07/12 19:31:17","159.568","0.0","212.97","0","60.0","29"
"07/07/12 19:36:19","159.5684","5.6","212.38","174","60.03","29"
"07/07/12 19:41:17","159.5687","7.7","212.97","194","60.0","29"
"07/07/12 19:46:18","159.569","14.4","212.73","7","60.03","28"
"07/07/12 19:51:17","159.5693","0.0","212.95","0","60.0","28"
"07/07/12 19:56:18","159.5695","0.0","212.73","168","60.03","28"
"07/08/12 05:56:23","159.5704","13.2","213.6","163","60.03","18"
"07/08/12 06:26:22","159.5711","0.0","212.94","0","60.03","19"
"07/08/12 06:31:18","159.5716","12.3","213.66","3","60.03","19"
"07/08/12 06:36:18","159.5721","13.3","213.59","28","60.0","19"
"07/08/12 06:41:18","159.5726","15.7","213.54","209","60.03","19"
"07/08/12 06:46:18","159.5732","10.9","213.09","22","60.03","19"
"07/08/12 06:51:18","159.5739","0.0","212.33","0","60.03","19"
"07/08/12 06:56:18","159.5747","12.0","212.52","15","60.03","20"
"07/08/12 07:01:18","159.5754","11.7","211.99","104","60.03","20"
"07/08/12 07:06:17","159.5763","16.8","213.02","29","60.03","20"
"07/08/12 07:11:17","159.5783","44.2","213.04","127","60.0","20"
"07/08/12 07:16:18","159.5813","47.1","213.27","356","60.0","21"
"07/08/12 07:21:18","159.5847","35.9","213.68","133","60.03","22"
"07/08/12 07:26:19","159.5884","52.3","213.64","357","60.0","22"
"07/08/12 07:31:17","159.5923","56.9","213.74","159","60.03","23"
"07/08/12 07:36:18","159.5962","49.2","215.29","328","60.03","23"
"07/08/12 07:41:18","159.6001","40.4","215.13","370","60.0","24"
"07/08/12 07:46:18","159.6039","62.4","214.46","334","60.03","25"
"07/08/12 07:51:19","159.6078","59.4","216.12","76","60.0","25"
"07/08/12 07:56:17","159.6117","43.7","215.24","389","60.07","26"
"07/08/12 08:01:18","159.6161","52.8","215.71","125","60.03","26"
"07/08/12 08:06:19","159.6205","73.4","215.7","200","60.0","27"
"07/08/12 08:11:18","159.627","88.1","215.93","426","60.0","27"
"07/08/12 08:16:18","159.6341","91.7","215.35","442","60.03","28"
"07/08/12 08:21:41","159.6419","97.0","215.78","464","60.0","28"
"07/08/12 08:26:18","159.649","100.9","215.62","482","60.03","29"
"07/08/12 08:31:18","159.657","104.3","215.28","494","60.0","29"
"07/08/12 08:36:17","159.6653","108.3","216.05","516","60.03","29"
"07/08/12 08:41:18","159.6739","112.5","215.94","531","60.0","30"
"07/08/12 08:46:19","159.6828","115.6","215.74","546","60.03","30"
"07/08/12 08:51:18","159.6919","119.0","216.0","561","60.03","31"
"07/08/12 08:56:18","159.7013","122.7","215.53","577","60.0","31"
"07/08/12 09:01:18","159.711","125.1","215.01","593","60.03","32"
"07/08/12 09:06:19","159.7209","128.6","215.75","603","60.03","32"
"07/08/12 09:11:18","159.731","132.1","215.67","618","60.0","33"
"07/08/12 09:16:18","159.7413","133.7","215.72","633","60.07","34"
"07/08/12 09:21:18","159.7519","137.3","215.95","645","60.0","34"
"07/08/12 09:26:18","159.7628","140.3","216.52","646","60.03","35"
"07/08/12 09:31:19","159.7738","142.6","216.38","665","60.07","36"
"07/08/12 09:36:17","159.7849","145.2","216.7","675","60.03","37"
"07/08/12 09:41:19","159.7965","148.6","216.55","687","60.03","37"
"07/08/12 09:46:18","159.8081","149.9","215.6","700","60.03","38"
"07/08/12 09:51:19","159.82","153.4","214.83","716","60.0","38"
"07/08/12 09:56:18","159.8319","156.0","216.03","721","60.03","39"
"07/08/12 10:01:18","159.8443","161.2","216.17","742","60.0","39"
"07/08/12 10:06:18","159.857","164.9","217.48","755","60.0","39"
"07/08/12 10:11:18","159.8698","165.8","216.28","763","60.03","39"
"07/08/12 10:16:18","159.8829","171.6","217.42","785","60.0","39"
"07/08/12 10:21:19","159.8964","172.1","217.25","788","60.0","39"
"07/08/12 10:26:19","159.9099","172.9","217.64","785","60.03","39"
"07/08/12 10:31:18","159.9234","175.3","217.27","801","60.0","39"
"07/08/12 10:36:18","159.9372","180.7","216.87","828","60.0","39"
"07/08/12 10:41:19","159.9515","184.7","218.22","830","60.03","38"
"07/08/12 10:46:19","159.9659","185.3","216.98","844","60.0","38"
"07/08/12 10:51:19","159.9804","187.4","216.62","854","60.0","37"
"07/08/12 10:56:19","159.995","188.4","217.78","852","60.03","37"
"07/08/12 11:01:18","160.0097","189.8","218.04","853","60.0","37"
"07/08/12 11:06:18","160.0246","191.6","217.85","868","60.03","37"
"07/08/12 11:11:17","160.0395","192.7","217.45","876","60.0","37"
"07/08/12 11:16:19","160.0546","194.2","217.96","879","60.0","37"
"07/08/12 11:21:17","160.0697","195.9","218.49","884","60.0","37"
"07/08/12 11:26:18","160.0849","196.2","217.87","880","60.0","37"
"07/08/12 11:31:18","160.1002","195.1","218.4","883","60.0","37"
"07/08/12 11:36:18","160.1155","196.1","218.23","891","60.03","38"
"07/08/12 11:41:19","160.1308","196.3","217.7","886","60.03","38"
"07/08/12 11:46:18","160.1461","195.6","217.92","885","60.03","38"
"07/08/12 11:51:19","160.1614","196.6","217.49","891","60.03","38"
"07/08/12 11:56:17","160.1766","196.3","217.33","885","60.03","38"
"07/08/12 12:01:18","160.1919","196.9","217.53","886","60.0","38"
"07/08/12 12:06:19","160.2073","195.8","217.24","887","60.03","38"
"07/08/12 12:16:19","160.2379","196.7","217.92","883","60.0","37"
"07/08/12 12:21:17","160.2531","195.7","217.01","891","60.0","37"
"07/08/12 12:26:18","160.2684","196.0","217.12","891","60.0","37"
"07/08/12 12:31:19","160.2838","195.5","217.67","882","60.03","37"
"07/08/12 12:36:18","160.299","195.7","216.58","880","60.03","37"
"07/08/12 12:41:19","160.3144","195.5","216.83","889","60.03","37"
"07/08/12 12:46:17","160.3296","196.4","217.28","883","60.03","36"
"07/08/12 12:51:18","160.3449","195.8","217.26","893","60.0","36"
"07/08/12 12:56:18","160.3602","196.6","217.01","892","60.0","36"
"07/08/12 13:01:19","160.3756","196.3","217.64","880","60.03","35"
"07/08/12 13:06:19","160.3909","197.0","218.34","885","60.03","35"
"07/08/12 13:11:19","160.4062","195.9","216.92","894","60.0","35"
"07/08/12 13:16:17","160.4214","195.3","217.69","887","60.03","36"
"07/08/12 13:21:19","160.4368","196.2","217.58","888","60.0","36"
"07/08/12 13:26:19","160.4521","195.9","217.12","894","60.0","36"
"07/08/12 13:31:18","160.4673","196.2","217.65","890","60.0","36"
"07/08/12 13:36:19","160.4827","195.8","217.2","892","60.03","36"
"07/08/12 13:41:18","160.4979","195.7","217.05","883","60.0","37"
"07/08/12 13:46:19","160.5132","195.5","217.11","882","60.03","38"
"07/08/12 13:51:19","160.5285","194.8","216.86","877","60.0","38"
"07/08/12 13:56:18","160.5435","194.0","217.64","883","60.0","38"
"07/08/12 14:01:19","160.5587","194.2","217.42","879","60.03","38"
"07/08/12 14:06:19","160.5737","191.6","216.56","872","60.03","38"
"07/08/12 14:11:18","160.5886","190.9","217.37","865","60.03","38"
"07/08/12 14:16:19","160.6034","187.2","217.45","854","60.03","38"
"07/08/12 14:21:18","160.6179","185.9","216.95","849","60.03","38"
"07/08/12 14:26:18","160.6324","185.3","216.95","842","60.0","38"
"07/08/12 14:31:19","160.6468","181.9","216.52","833","60.0","38"
"07/08/12 14:36:18","160.6609","180.7","217.79","823","60.0","38"
"07/08/12 14:41:18","160.675","180.1","218.13","821","60.03","38"
"07/08/12 14:46:19","160.689","176.6","217.42","802","60.03","38"
"07/08/12 14:51:19","160.7027","175.9","216.94","804","60.0","38"
"07/08/12 14:56:19","160.7162","171.8","216.16","792","60.07","38"
"07/08/12 15:01:18","160.7296","170.8","216.68","782","60.0","38"
"07/08/12 15:06:18","160.7428","168.4","217.86","770","60.03","38"
"07/08/12 15:11:19","160.7558","165.2","216.97","753","60.03","38"
"07/08/12 15:16:19","160.7685","162.1","216.41","748","60.03","38"
"07/08/12 15:21:19","160.7811","158.7","216.37","730","60.03","38"
"07/08/12 15:26:18","160.7932","156.3","217.12","718","60.03","38"
"07/08/12 15:31:18","160.8052","153.2","216.54","711","60.03","37"
"07/08/12 15:36:18","160.8171","150.6","216.25","691","60.0","37"
"07/08/12 15:41:17","160.8287","147.7","216.81","684","60.03","37"
"07/08/12 15:46:18","160.84","144.4","216.33","672","60.0","37"
"07/08/12 15:51:17","160.8512","141.6","217.61","650","60.03","36"
"07/08/12 15:56:19","160.8621","138.3","217.48","643","60.03","36"
"07/08/12 16:01:19","160.8728","134.8","216.52","630","60.0","35"
"07/08/12 16:06:19","160.8831","130.7","217.03","610","60.0","35"
"07/08/12 16:11:19","160.8932","127.7","216.45","597","60.0","35"
"07/08/12 16:16:19","160.903","124.9","216.98","588","60.03","35"
"07/08/12 16:21:18","160.9125","121.4","216.92","569","60.03","34"
"07/08/12 16:26:19","160.9218","117.2","215.52","552","60.0","34"
"07/08/12 16:31:18","160.9307","113.5","215.73","538","60.03","34"
"07/08/12 16:36:18","160.9394","109.7","216.08","520","60.0","34"
"07/08/12 16:41:18","160.9478","105.8","215.21","504","60.0","34"
"07/08/12 16:46:18","160.9559","102.1","215.57","489","60.03","33"
"07/08/12 16:51:19","160.9637","97.7","215.38","470","60.03","33"
"07/08/12 16:56:19","160.971","93.5","214.62","453","60.0","33"
"07/08/12 17:01:19","160.9782","90.0","215.23","439","60.0","33"
"07/08/12 17:06:18","160.9851","86.2","214.85","424","60.03","32"
"07/08/12 17:11:19","160.9917","82.2","215.45","400","60.03","32"
"07/08/12 17:16:18","160.9979","77.9","215.13","386","60.03","32"
"07/08/12 17:21:19","161.0038","74.1","215.14","365","60.0","31"
"07/08/12 17:26:18","161.0093","69.9","215.38","348","60.03","31"
"07/08/12 17:31:18","161.0146","65.3","215.45","333","60.03","31"
"07/08/12 17:36:17","161.0193","57.4","214.53","168","60.03","31"
"07/08/12 17:41:18","161.0232","46.9","214.71","358","60.03","31"
"07/08/12 17:46:19","161.0271","56.3","214.31","227","60.07","31"
"07/08/12 17:51:18","161.0309","47.6","214.35","310","60.07","31"
"07/08/12 17:56:19","161.0345","38.8","213.69","158","60.0","31"
"07/08/12 18:01:19","161.0378","34.4","214.11","137","60.03","31"
"07/08/12 18:06:18","161.0408","43.3","214.49","106","60.03","31"
"07/08/12 18:11:18","161.0435","37.1","213.63","191","60.03","31"
"07/08/12 18:16:19","161.0458","32.5","213.29","187","60.03","31"
"07/08/12 18:21:18","161.048","37.6","213.77","43","60.0","31"
"07/08/12 18:26:19","161.0498","29.2","213.27","79","60.03","31"
"07/08/12 18:31:19","161.0522","33.7","214.1","245","60.07","31"
"07/08/12 18:36:19","161.0544","29.6","214.56","175","60.03","31"
"07/08/12 18:41:19","161.0562","12.6","213.5","81","60.03","30"
"07/08/12 18:46:19","161.0572","11.6","214.46","1","60.07","30"
"07/08/12 18:51:18","161.0581","12.1","213.89","37","60.03","29"
"07/08/12 18:56:18","161.0588","7.1","213.41","159","60.03","29"
"07/08/12 19:01:19","161.0594","12.4","214.12","78","60.0","28"
"07/08/12 19:06:18","161.0599","0.0","214.12","0","60.03","28"
"07/08/12 19:11:18","161.0605","11.1","212.87","50","60.0","28"
"07/08/12 19:16:18","161.061","0.0","213.09","0","60.03","27"
"07/08/12 19:21:18","161.0616","14.8","212.6","0","60.03","27"
"07/08/12 19:26:19","161.0622","12.6","212.55","165","60.03","27"
"07/08/12 19:31:18","161.0627","13.1","212.98","65","60.0","27"
"07/08/12 19:36:18","161.0631","8.4","213.26","0","60.03","27"
"07/08/12 19:41:19","161.0635","0.0","213.24","0","60.03","26"
"07/08/12 19:46:18","161.0639","1.6","214.01","186","60.03","26"
"07/08/12 19:51:18","161.0642","0.0","213.99","0","60.03","25"
"07/08/12 19:56:18","161.0644","0.0","213.96","36","60.03","25"
"07/08/12 20:06:18","161.0648","0.0","213.13","0","60.03","24"
"07/09/12 05:41:22","161.0651","0.0","215.64","0","60.03","17"
"07/09/12 05:46:22","161.0654","0.0","215.64","74","60.03","17"
"07/09/12 05:51:18","161.0659","13.7","214.32","2","60.07","17"
"07/09/12 05:56:19","161.0666","13.6","215.52","16","60.03","18"
"07/09/12 06:01:19","161.0673","15.0","215.15","11","60.07","18"
"07/09/12 06:06:19","161.068","12.3","213.48","1","60.03","18"
"07/09/12 06:11:18","161.0688","11.3","214.13","96","60.03","18"
"07/09/12 06:16:18","161.0695","6.4","214.37","211","60.03","19"
"07/09/12 06:21:19","161.0701","16.1","214.31","7","60.03","19"
"07/09/12 06:26:19","161.071","14.3","215.18","57","60.0","19"
"07/09/12 06:31:19","161.0721","10.9","212.76","31","60.03","19"
"07/09/12 06:36:19","161.0734","14.9","213.21","81","60.0","20"
"07/09/12 06:41:19","161.0748","24.9","217.83","109","60.03","20"
"07/09/12 06:46:20","161.0764","30.0","213.86","58","60.03","20"
"07/09/12 06:51:18","161.0782","19.4","213.06","148","60.03","21"
"07/09/12 06:56:20","161.0802","23.7","214.31","164","60.0","22"
"07/09/12 07:01:18","161.0817","23.1","214.74","113","60.0","22"
"07/09/12 07:06:20","161.0836","31.2","214.95","84","59.96","22"
"07/09/12 07:11:18","161.0864","33.4","214.58","113","60.03","23"
"07/09/12 07:16:19","161.0897","40.0","213.58","109","59.96","23"
"07/09/12 07:21:19","161.0933","46.0","214.1","89","60.0","24"
"07/09/12 07:26:19","161.0972","49.0","214.61","353","60.03","24"
"07/09/12 07:31:20","161.1011","50.1","214.46","351","60.03","24"
"07/09/12 07:36:20","161.1043","57.1","214.04","92","60.03","24"
"07/09/12 07:41:19","161.1082","53.6","214.31","346","60.03","24"
"07/09/12 07:46:20","161.1121","30.4","213.35","137","60.03","25"
"07/09/12 07:51:18","161.1145","21.2","212.53","130","60.0","24"
"07/09/12 07:56:19","161.1197","80.0","214.47","396","60.03","25"
"07/09/12 08:01:18","161.1252","66.2","214.09","441","60.03","26"
"07/09/12 08:06:18","161.1309","79.0","214.52","391","60.0","26"
"07/09/12 08:11:18","161.136","69.3","216.05","346","60.03","26"
"07/09/12 08:16:19","161.1407","88.4","215.37","430","60.0","27"
"07/09/12 08:21:18","161.1482","98.9","217.55","470","60.03","27"
"07/09/12 08:26:20","161.1561","101.4","217.41","484","60.0","28"
"07/09/12 08:31:19","161.1641","105.0","215.44","499","60.0","29"
"07/09/12 08:36:19","161.1726","113.8","216.76","540","60.03","30"
"07/09/12 08:41:19","161.1819","127.2","215.65","596","60.0","31"
"07/09/12 08:46:18","161.1889","56.7","213.23","159","60.03","31"
"07/09/12 08:51:20","161.1945","142.5","215.18","665","60.03","31"
"07/09/12 08:56:19","161.2043","135.0","214.68","634","60.07","32"
"07/09/12 09:01:19","161.2147","108.0","216.95","506","60.0","32"
"07/09/12 09:06:18","161.2248","136.9","218.38","633","60.03","32"
"07/09/12 09:11:20","161.2355","137.4","216.3","637","60.03","32"
"07/09/12 09:16:19","161.2462","138.8","216.73","648","60.03","33"
"07/09/12 09:21:19","161.257","139.9","216.44","653","60.03","34"
"07/09/12 09:26:18","161.2681","142.0","215.9","660","60.0","35"
"07/09/12 09:31:19","161.2792","143.4","216.8","668","60.03","36"
"07/09/12 09:36:18","161.2905","145.7","217.25","673","60.0","37"
"07/09/12 09:41:19","161.302","149.1","216.95","694","60.03","37"
"07/09/12 09:46:19","161.3138","152.7","217.21","705","60.03","37"
"07/09/12 09:51:18","161.3257","156.4","217.42","718","60.0","37"
"07/09/12 09:56:18","161.3381","159.3","217.45","731","60.03","37"
"07/09/12 10:01:18","161.3506","163.7","216.86","757","60.07","37"
"07/09/12 10:06:19","161.3635","166.1","216.87","765","60.0","37"
"07/09/12 10:11:18","161.3764","169.9","218.0","777","60.03","37"
"07/09/12 10:16:18","161.3903","194.2","218.77","875","60.03","37"
"07/09/12 10:21:20","161.4001","71.4","214.54","359","60.03","36"
"07/09/12 10:26:19","161.4046","42.5","215.11","148","60.0","34"
"07/09/12 10:31:20","161.4069","36.9","215.15","119","60.03","32"
"07/09/12 10:36:19","161.4089","30.5","214.26","267","60.0","30"
"07/09/12 10:41:18","161.412","49.0","214.95","367","60.0","29"
"07/09/12 10:46:19","161.4223","107.3","214.6","510","60.0","29"
"07/09/12 10:51:19","161.4351","161.1","215.69","742","60.0","30"
"07/09/12 10:56:19","161.4452","195.2","219.86","887","60.03","30"
"07/09/12 11:01:18","161.4552","83.6","216.11","411","60.03","30"
"07/09/12 11:06:18","161.4654","95.8","215.68","462","60.0","30"
"07/09/12 11:11:19","161.473","66.4","215.32","338","60.03","29"
"07/09/12 11:16:19","161.4766","35.9","214.87","135","60.03","28"
"07/09/12 11:21:18","161.4804","98.6","215.72","476","60.0","28"
"07/09/12 11:26:18","161.493","192.6","218.37","851","60.03","29"
"07/09/12 11:31:19","161.5079","195.5","219.12","878","60.0","30"
"07/09/12 11:36:20","161.5233","195.7","217.28","899","60.03","31"
"07/09/12 11:41:18","161.5338","74.3","214.51","372","60.03","31"
"07/09/12 11:46:19","161.539","142.6","215.77","664","60.03","31"
"07/09/12 11:51:19","161.5472","106.2","215.73","511","60.03","30"
"07/09/12 11:56:19","161.5597","119.3","215.27","565","60.0","31"
"07/09/12 12:01:20","161.5679","106.4","214.85","512","60.03","31"
"07/09/12 12:06:18","161.5779","193.1","217.45","866","60.03","32"
"07/09/12 12:11:18","161.5925","115.7","215.88","546","60.03","33"
"07/09/12 12:16:19","161.6074","196.9","217.93","888","60.0","34"
"07/09/12 12:21:18","161.6224","196.0","217.58","888","60.0","35"
"07/09/12 12:26:18","161.6369","195.6","216.27","889","60.0","37"
"07/09/12 12:31:18","161.652","196.1","216.83","894","60.0","38"
"07/09/12 12:36:19","161.6673","195.7","217.69","874","60.0","38"
"07/09/12 12:46:19","161.679","55.5","213.51","101","60.03","36"
"07/09/12 12:51:18","161.6853","95.5","214.83","465","60.03","36"
"07/09/12 12:56:19","161.6986","193.0","217.57","866","60.07","37"